"Period start","avg(HW err(1)/warn(2) (#))","avg(Visibility (m))","avg(Weather code (#))","avg(Precip intensity (mm/h))","min(HW err(1)/warn(2) (#))","max(HW err(1)/warn(2) (#))","std(HW err(1)/warn(2) (#))","med(HW err(1)/warn(2) (#))","min(Visibility (m))","max(Visibility (m))","std(Visibility (m))","med(Visibility (m))","min(Weather code (#))","max(Weather code (#))","std(Weather code (#))","med(Weather code (#))","min(Precip intensity (mm/h))","max(Precip intensity (mm/h))","std(Precip intensity (mm/h))","med(Precip intensity (mm/h))"
2016-07-04 00:00:00,2,42292,0,0.00,2,2,0,2,32932,50000,5950,43746,0,0,0,0,0.00,0.00,0.00,0.00
2016-07-04 00:10:00,2,47027,0,0.00,2,2,0,2,35837,50000,4800,49954,0,0,0,0,0.00,0.00,0.00,0.00
2016-07-04 00:20:00,2,36179,0,0.00,2,2,0,2,19833,50000,9621,32996,0,0,0,0,0.00,0.00,0.00,0.00
2016-07-04 00:30:00,2,40061,0,0.00,2,2,0,2,24251,50000,7792,40256,0,0,0,0,0.00,0.00,0.00,0.00
2016-07-04 00:40:00,2,42334,0,0.00,2,2,0,2,30907,50000,6259,43679,0,0,0,0,0.00,0.00,0.00,0.00
2016-07-04 00:50:00,2,45760,0,0.00,2,2,0,2,36201,50000,4638,47634,0,0,0,0,0.00,0.00,0.00,0.00
2016-07-04 01:00:00,2,42021,0,0.00,2,2,0,2,24805,50000,9136,46701,0,0,0,0,0.00,0.00,0.00,0.00
2016-07-04 01:10:00,2,45466,0,0.00,2,2,0,2,34749,50000,4964,47360,0,0,0,0,0.00,0.00,0.00,0.00
"Period start","avg(HW err(1)/warn(2) (#))","avg(Visibility (m))","avg(Weather code (#))","avg(Precip intensity (mm/h))","min(HW err(1)/warn(2) (#))","max(HW err(1)/warn(2) (#))","std(HW err(1)/warn(2) (#))","med(HW err(1)/warn(2) (#))","min(Visibility (m))","max(Visibility (m))","std(Visibility (m))","med(Visibility (m))","min(Weather code (#))","max(Weather code (#))","std(Weather code (#))","med(Weather code (#))","min(Precip intensity (mm/h))","max(Precip intensity (mm/h))","std(Precip intensity (mm/h))","med(Precip intensity (mm/h))"
2016-07-04 01:20:00,2,44600,0,0.00,2,2,0,2,31238,50000,5967,46432,0,0,0,0,0.00,0.00,0.00,0.00
2016-07-04 01:30:00,2,42962,0,0.00,2,2,0,2,29248,50000,6931,44945,0,0,0,0,0.00,0.00,0.00,0.00
2016-07-04 01:40:00,2,41386,0,0.00,2,2,0,2,26020,50000,7706,42160,0,0,0,0,0.00,0.00,0.00,0.00
2016-07-04 01:50:00,2,45974,0,0.00,2,2,0,2,35583,50000,5641,49818,0,0,0,0,0.00,0.00,0.00,0.00
2016-07-04 02:00:00,2,48879,0,0.00,2,2,0,2,45318,50000,1775,50000,0,0,0,0,0.00,0.00,0.00,0.00
2016-07-04 02:10:00,2,37985,0,0.00,2,2,0,2,27504,50000,7816,38413,0,0,0,0,0.00,0.00,0.00,0.00
2016-07-04 02:20:00,2,42255,0,0.00,2,2,0,2,36736,50000,4759,40474,0,0,0,0,0.00,0.00,0.00,0.00
2016-07-04 02:30:00,2,45246,0,0.00,2,2,0,2,33867,50000,5274,46598,0,0,0,0,0.00,0.00,0.00,0.00
2016-07-04 02:40:00,2,38979,0,0.00,2,2,0,2,26488,50000,6616,39464,0,0,0,0,0.00,0.00,0.00,0.00
2016-07-04 02:50:00,2,41136,0,0.00,2,2,0,2,26723,50000,6889,43244,0,0,0,0,0.00,0.00,0.00,0.00
2016-07-04 03:00:00,2,46938,0,0.00,2,2,0,2,29763,50000,5945,50000,0,0,0,0,0.00,0.00,0.00,0.00
2016-07-04 03:10:00,2,47824,0,0.00,2,2,0,2,42633,50000,2444,48512,0,0,0,0,0.00,0.00,0.00,0.00
2016-07-04 03:20:00,2,49539,0,0.00,2,2,0,2,47067,50000,964,50000,0,0,0,0,0.00,0.00,0.00,0.00
2016-07-04 03:30:00,2,48877,0,0.00,2,2,0,2,46148,50000,1716,50000,0,0,0,0,0.00,0.00,0.00,0.00
2016-07-04 03:40:00,2,45352,0,0.00,2,2,0,2,33340,50000,6028,48214,0,0,0,0,0.00,0.00,0.00,0.00
2016-07-04 03:50:00,2,48975,0,0.00,2,2,0,2,44701,50000,1754,50000,0,0,0,0,0.00,0.00,0.00,0.00
2016-07-04 04:00:00,2,47549,0,0.00,2,2,0,2,41982,50000,2583,48134,0,0,0,0,0.00,0.00,0.00,0.00
2016-07-04 04:10:00,2,46133,0,0.00,2,2,0,2,36603,50000,4226,47275,0,0,0,0,0.00,0.00,0.00,0.00
2016-07-04 04:20:00,2,47338,0,0.00,2,2,0,2,42725,50000,2172,47694,0,0,0,0,0.00,0.00,0.00,0.00
2016-07-04 04:30:00,2,45910,0,0.00,2,2,0,2,35282,50000,5128,48984,0,0,0,0,0.00,0.00,0.00,0.00
2016-07-04 04:40:00,2,48432,0,0.00,2,2,0,2,40127,50000,2856,49580,0,0,0,0,0.00,0.00,0.00,0.00
2016-07-04 04:50:00,2,43524,0,0.00,2,2,0,2,30898,50000,6073,45208,0,0,0,0,0.00,0.00,0.00,0.00
2016-07-04 05:00:00,2,46272,0,0.00,0,2,1,2,31235,50000,5815,49434,0,0,0,0,0.00,0.00,0.00,0.00
2016-07-04 05:10:00,1,44769,0,0.00,0,2,1,0,37864,50000,4356,45217,0,0,0,0,0.00,0.00,0.00,0.00
2016-07-04 05:20:00,0,45486,0,0.00,0,2,1,0,33118,50000,5342,47442,0,0,0,0,0.00,0.00,0.00,0.00
2016-07-04 05:30:00,0,47953,0,0.00,0,0,0,0,41673,50000,2607,48914,0,0,0,0,0.00,0.00,0.00,0.00
2016-07-04 05:40:00,0,47095,0,0.00,0,0,0,0,40088,50000,3265,47937,0,0,0,0,0.00,0.00,0.00,0.00
2016-07-04 05:50:00,0,47511,0,0.00,0,0,0,0,42873,50000,2820,49012,0,0,0,0,0.00,0.00,0.00,0.00
2016-07-04 06:00:00,0,46329,0,0.00,0,0,0,0,33152,50000,5214,48792,0,0,0,0,0.00,0.00,0.00,0.00
2016-07-04 06:10:00,0,49163,0,0.00,0,0,0,0,47440,50000,1084,50000,0,0,0,0,0.00,0.00,0.00,0.00
2016-07-04 06:20:00,0,48486,0,0.00,0,0,0,0,40695,50000,2871,50000,0,0,0,0,0.00,0.00,0.00,0.00
2016-07-04 06:30:00,0,49016,0,0.00,0,0,0,0,47028,50000,1136,49691,0,0,0,0,0.00,0.00,0.00,0.00
2016-07-04 06:40:00,1,48284,0,0.00,0,2,1,0,38671,50000,3520,50000,0,0,0,0,0.00,0.00,0.00,0.00
2016-07-04 06:50:00,0,49127,0,0.00,0,2,1,0,45249,50000,1532,50000,0,0,0,0,0.00,0.00,0.00,0.00
2016-07-04 07:00:00,0,48419,0,0.00,0,0,0,0,45198,50000,1772,49317,0,0,0,0,0.00,0.00,0.00,0.00
2016-07-04 07:10:00,0,49364,0,0.00,0,0,0,0,43954,50000,1806,50000,0,0,0,0,0.00,0.00,0.00,0.00
2016-07-04 07:20:00,0,48037,0,0.00,0,0,0,0,36816,50000,3871,50000,0,0,0,0,0.00,0.00,0.00,0.00
2016-07-04 07:30:00,0,48301,0,0.00,0,0,0,0,44380,50000,2261,49713,0,0,0,0,0.00,0.00,0.00,0.00
2016-07-04 07:40:00,0,47947,0,0.00,0,0,0,0,43793,50000,2568,50000,0,0,0,0,0.00,0.00,0.00,0.00
2016-07-04 07:50:00,0,48553,0,0.00,0,0,0,0,44530,50000,1697,49112,0,0,0,0,0.00,0.00,0.00,0.00
2016-07-04 08:00:00,0,44644,0,0.00,0,0,0,0,23453,50000,8013,47476,0,0,0,0,0.00,0.00,0.00,0.00
2016-07-04 08:10:00,0,46295,0,0.00,0,0,0,0,37614,50000,4576,48820,0,0,0,0,0.00,0.00,0.00,0.00
2016-07-04 08:20:00,0,45803,0,0.00,0,0,0,0,23939,50000,7473,48427,0,0,0,0,0.00,0.00,0.00,0.00
2016-07-04 08:30:00,0,49046,0,0.00,0,0,0,0,43180,50000,2029,50000,0,0,0,0,0.00,0.00,0.00,0.00
2016-07-04 08:40:00,0,48669,0,0.00,0,0,0,0,41893,50000,2402,50000,0,0,0,0,0.00,0.00,0.00,0.00
2016-07-04 08:50:00,0,49888,0,0.00,0,0,0,0,49178,50000,253,50000,0,0,0,0,0.00,0.00,0.00,0.00
2016-07-04 09:00:00,0,49643,0,0.00,0,0,0,0,47885,50000,729,50000,0,0,0,0,0.00,0.00,0.00,0.00
2016-07-04 09:10:00,0,50000,0,0.00,0,0,0,0,50000,50000,0,50000,0,0,0,0,0.00,0.00,0.00,0.00
2016-07-04 09:20:00,0,49900,0,0.00,0,0,0,0,49448,50000,201,50000,0,0,0,0,0.00,0.00,0.00,0.00
2016-07-04 09:30:00,0,49591,0,0.00,0,0,0,0,47851,50000,697,50000,0,0,0,0,0.00,0.00,0.00,0.00
2016-07-04 09:40:00,0,49181,0,0.00,0,0,0,0,45272,50000,1549,50000,0,0,0,0,0.00,0.00,0.00,0.00
2016-07-04 09:50:00,0,49249,0,0.00,0,0,0,0,46175,50000,1503,50000,0,0,0,0,0.00,0.00,0.00,0.00
2016-07-04 10:00:00,0,49681,0,0.00,0,0,0,0,46813,50000,956,50000,0,0,0,0,0.00,0.00,0.00,0.00
2016-07-04 10:10:00,0,49519,0,0.00,0,0,0,0,47618,50000,865,50000,0,0,0,0,0.00,0.00,0.00,0.00
2016-07-04 10:20:00,0,49728,0,0.00,0,0,0,0,48330,50000,561,50000,0,0,0,0,0.00,0.00,0.00,0.00
2016-07-04 10:30:00,0,49701,0,0.00,0,0,0,0,48270,50000,588,50000,0,0,0,0,0.00,0.00,0.00,0.00
2016-07-04 10:40:00,0,50000,0,0.00,0,0,0,0,50000,50000,0,50000,0,0,0,0,0.00,0.00,0.00,0.00
2016-07-04 10:50:00,0,48521,0,0.00,0,0,0,0,42507,50000,2318,50000,0,0,0,0,0.00,0.00,0.00,0.00
2016-07-04 11:00:00,1,49634,0,0.00,0,2,1,1,48436,50000,603,50000,0,0,0,0,0.00,0.00,0.00,0.00
2016-07-04 11:10:00,2,49948,0,0.00,0,2,1,2,49533,50000,147,50000,0,0,0,0,0.00,0.00,0.00,0.00
2016-07-04 11:20:00,1,50000,0,0.00,0,2,1,2,50000,50000,0,50000,0,0,0,0,0.00,0.00,0.00,0.00
2016-07-04 11:30:00,2,50000,0,0.00,2,2,0,2,50000,50000,0,50000,0,0,0,0,0.00,0.00,0.00,0.00
2016-07-04 11:40:00,2,50000,0,0.00,2,2,0,2,50000,50000,0,50000,0,0,0,0,0.00,0.00,0.00,0.00
2016-07-04 11:50:00,2,50000,0,0.00,0,2,1,2,50000,50000,0,50000,0,0,0,0,0.00,0.00,0.00,0.00
2016-07-04 12:00:00,2,50000,0,0.00,2,2,0,2,50000,50000,0,50000,0,0,0,0,0.00,0.00,0.00,0.00
2016-07-04 12:10:00,2,49215,0,0.00,0,2,1,2,46394,50000,1470,50000,0,0,0,0,0.00,0.00,0.00,0.00
2016-07-04 12:20:00,2,49756,0,0.00,0,2,1,2,47564,50000,731,50000,0,0,0,0,0.00,0.00,0.00,0.00
2016-07-04 12:30:00,2,49438,0,0.00,0,2,1,2,45357,50000,1449,50000,0,0,0,0,0.00,0.00,0.00,0.00
2016-07-04 12:40:00,2,50000,0,0.00,0,2,1,2,50000,50000,0,50000,0,0,0,0,0.00,0.00,0.00,0.00
2016-07-04 12:50:00,1,50000,0,0.00,0,2,1,2,50000,50000,0,50000,0,0,0,0,0.00,0.00,0.00,0.00
2016-07-04 13:00:00,2,50000,0,0.00,2,2,0,2,50000,50000,0,50000,0,0,0,0,0.00,0.00,0.00,0.00
2016-07-04 13:10:00,2,50000,0,0.00,2,2,0,2,50000,50000,0,50000,0,0,0,0,0.00,0.00,0.00,0.00
2016-07-04 13:20:00,2,50000,0,0.00,2,2,0,2,50000,50000,0,50000,0,0,0,0,0.00,0.00,0.00,0.00
2016-07-04 13:30:00,2,50000,0,0.00,2,2,0,2,50000,50000,0,50000,0,0,0,0,0.00,0.00,0.00,0.00
2016-07-04 13:40:00,2,50000,0,0.00,2,2,0,2,50000,50000,0,50000,0,0,0,0,0.00,0.00,0.00,0.00
2016-07-04 13:50:00,2,50000,0,0.00,2,2,0,2,50000,50000,0,50000,0,0,0,0,0.00,0.00,0.00,0.00
2016-07-04 14:00:00,2,50000,0,0.00,2,2,0,2,50000,50000,0,50000,0,0,0,0,0.00,0.00,0.00,0.00
2016-07-04 14:10:00,2,50000,0,0.00,2,2,0,2,50000,50000,0,50000,0,0,0,0,0.00,0.00,0.00,0.00
2016-07-04 14:20:00,2,50000,0,0.00,2,2,0,2,50000,50000,0,50000,0,0,0,0,0.00,0.00,0.00,0.00
2016-07-04 14:30:00,2,49253,0,0.00,2,2,0,2,43305,50000,1996,50000,0,0,0,0,0.00,0.00,0.00,0.00
2016-07-04 14:40:00,2,50000,0,0.00,2,2,0,2,50000,50000,0,50000,0,0,0,0,0.00,0.00,0.00,0.00
2016-07-04 14:50:00,2,50000,0,0.00,2,2,0,2,50000,50000,0,50000,0,0,0,0,0.00,0.00,0.00,0.00
2016-07-04 15:00:00,2,49994,0,0.00,0,2,1,2,49945,50000,16,50000,0,0,0,0,0.00,0.00,0.00,0.00
"Period start","avg(HW err(1)/warn(2) (#))","avg(Visibility (m))","avg(Weather code (#))","avg(Precip intensity (mm/h))","min(HW err(1)/warn(2) (#))","max(HW err(1)/warn(2) (#))","std(HW err(1)/warn(2) (#))","med(HW err(1)/warn(2) (#))","min(Visibility (m))","max(Visibility (m))","std(Visibility (m))","med(Visibility (m))","min(Weather code (#))","max(Weather code (#))","std(Weather code (#))","med(Weather code (#))","min(Precip intensity (mm/h))","max(Precip intensity (mm/h))","std(Precip intensity (mm/h))","med(Precip intensity (mm/h))"
2016-07-04 18:40:00,2,50000,0,0.00,2,2,0,2,50000,50000,0,50000,0,0,0,0,0.00,0.00,0.00,0.00
2016-07-04 18:50:00,2,50000,0,0.00,2,2,0,2,50000,50000,0,50000,0,0,0,0,0.00,0.00,0.00,0.00
2016-07-04 19:00:00,2,49957,0,0.00,2,2,0,2,49569,50000,129,50000,0,0,0,0,0.00,0.00,0.00,0.00
2016-07-04 19:10:00,2,49938,0,0.00,2,2,0,2,49377,50000,187,50000,0,0,0,0,0.00,0.00,0.00,0.00
2016-07-04 19:20:00,2,49910,0,0.00,2,2,0,2,49464,50000,184,50000,0,0,0,0,0.00,0.00,0.00,0.00
2016-07-04 19:30:00,2,49848,0,0.00,2,2,0,2,48844,50000,352,50000,0,0,0,0,0.00,0.00,0.00,0.00
2016-07-04 19:40:00,2,48833,0,0.00,2,2,0,2,43072,50000,2385,50000,0,0,0,0,0.00,0.00,0.00,0.00
2016-07-04 19:50:00,2,47808,0,0.00,2,2,0,2,42576,50000,2699,49198,0,0,0,0,0.00,0.00,0.00,0.00
2016-07-04 20:00:00,2,48787,0,0.00,2,2,0,2,44637,50000,1970,50000,0,0,0,0,0.00,0.00,0.00,0.00
2016-07-04 20:10:00,2,48904,0,0.00,2,2,0,2,44737,50000,1864,49944,0,0,0,0,0.00,0.00,0.00,0.00
2016-07-04 20:20:00,2,47790,0,0.00,2,2,0,2,39499,50000,3350,49829,0,0,0,0,0.00,0.00,0.00,0.00
2016-07-04 20:30:00,2,49760,0,0.00,2,2,0,2,48776,50000,438,50000,0,0,0,0,0.00,0.00,0.00,0.00
2016-07-04 20:40:00,2,49488,0,0.00,2,2,0,2,46486,50000,1110,50000,0,0,0,0,0.00,0.00,0.00,0.00
2016-07-04 20:50:00,2,49229,0,0.00,2,2,0,2,44752,50000,1602,50000,0,0,0,0,0.00,0.00,0.00,0.00
2016-07-04 21:00:00,2,48942,0,0.00,2,2,0,2,43407,50000,2006,50000,0,0,0,0,0.00,0.00,0.00,0.00
2016-07-04 21:10:00,2,47680,0,0.00,2,2,0,2,34508,50000,4833,50000,0,0,0,0,0.00,0.00,0.00,0.00
2016-07-04 21:20:00,2,49812,0,0.00,2,2,0,2,48678,50000,413,50000,0,0,0,0,0.00,0.00,0.00,0.00
2016-07-04 21:30:00,2,49580,0,0.00,2,2,0,2,45801,50000,1260,50000,0,0,0,0,0.00,0.00,0.00,0.00
2016-07-04 21:40:00,2,46383,0,0.00,2,2,0,2,42970,50000,2988,46090,0,0,0,0,0.00,0.00,0.00,0.00
2016-07-04 21:50:00,2,45567,0,0.00,2,2,0,2,35103,50000,5081,48616,0,0,0,0,0.00,0.00,0.00,0.00
2016-07-04 22:00:00,2,48148,0,0.00,2,2,0,2,41342,50000,2814,49477,0,0,0,0,0.00,0.00,0.00,0.00
2016-07-04 22:10:00,2,45500,0,0.00,2,2,0,2,30270,50000,7051,49963,0,0,0,0,0.00,0.00,0.00,0.00
2016-07-04 22:20:00,2,46132,0,0.00,2,2,0,2,32026,50000,6039,49998,0,0,0,0,0.00,0.00,0.00,0.00
2016-07-04 22:30:00,2,49374,0,0.00,2,2,0,2,46910,50000,1173,50000,0,0,0,0,0.00,0.00,0.00,0.00
2016-07-04 22:40:00,2,48031,0,0.00,2,2,0,2,38615,50000,3643,50000,0,0,0,0,0.00,0.00,0.00,0.00
2016-07-04 22:50:00,2,46883,0,0.00,2,2,0,2,34962,50000,4954,49724,0,0,0,0,0.00,0.00,0.00,0.00
2016-07-04 23:00:00,2,47862,0,0.00,2,2,0,2,43232,50000,2833,50000,0,0,0,0,0.00,0.00,0.00,0.00
2016-07-04 23:10:00,2,49280,0,0.00,2,2,0,2,43600,50000,1908,50000,0,0,0,0,0.00,0.00,0.00,0.00
2016-07-04 23:20:00,2,47948,0,0.00,2,2,0,2,43755,50000,2373,49040,0,0,0,0,0.00,0.00,0.00,0.00
2016-07-04 23:30:00,2,48917,0,0.00,2,2,0,2,42617,50000,2209,50000,0,0,0,0,0.00,0.00,0.00,0.00
2016-07-04 23:40:00,2,48746,0,0.00,2,2,0,2,43013,50000,2238,50000,0,0,0,0,0.00,0.00,0.00,0.00
2016-07-04 23:50:00,2,36289,0,0.00,2,2,0,2,28606,43602,4852,35816,0,0,0,0,0.00,0.00,0.00,0.00
